EZY54A EGKK-EGJJ

Flight info

Callsign EZY54A
Flight time 0h 43m
Altitude 26000
Route IMVUR N63 LELNA
Aircraft A319/M-SDE3FGHIRWY/LB1

Departure

Time 2026-05-07 10:12
Airport London Gatwick Airport (EGKK)

Arrival

Time 2026-05-07 10:55
Airport Jersey Airport (EGJJ)
Time Latitude Longitude Altitude Speed Heading
2026-05-07 09:31 51.15817 -0.17938 205 ft 0 kts 77°
2026-05-07 09:58 51.15813 -0.17963 217 ft 4 kts 83°
2026-05-07 09:58 51.15812 -0.18006 217 ft 4 kts 96°
2026-05-07 09:58 51.15818 -0.18048 217 ft 4 kts 117°
2026-05-07 09:58 51.15834 -0.18076 215 ft 2 kts 166°
2026-05-07 09:59 51.15835 -0.18077 216 ft 0 kts 167°
2026-05-07 10:01 51.15834 -0.18077 215 ft 1 kts 167°
2026-05-07 10:02 51.15813 -0.18069 217 ft 6 kts 167°
2026-05-07 10:02 51.15759 -0.18051 205 ft 10 kts 167°
2026-05-07 10:02 51.15683 -0.18070 210 ft 14 kts 240°
2026-05-07 10:02 51.15660 -0.18242 211 ft 18 kts 258°
2026-05-07 10:03 51.15633 -0.18436 215 ft 18 kts 258°
2026-05-07 10:03 51.15607 -0.18634 207 ft 18 kts 258°
2026-05-07 10:03 51.15563 -0.18814 207 ft 17 kts 207°
2026-05-07 10:03 51.15447 -0.18793 209 ft 17 kts 167°
2026-05-07 10:04 51.15329 -0.18751 211 ft 18 kts 167°
2026-05-07 10:04 51.15207 -0.18709 209 ft 18 kts 167°
2026-05-07 10:04 51.15121 -0.18788 207 ft 18 kts 257°
2026-05-07 10:04 51.15095 -0.18976 210 ft 17 kts 257°
2026-05-07 10:05 51.15069 -0.19165 207 ft 18 kts 257°
2026-05-07 10:05 51.15043 -0.19356 212 ft 18 kts 257°
2026-05-07 10:05 51.15017 -0.19548 211 ft 18 kts 258°
2026-05-07 10:05 51.14990 -0.19742 206 ft 18 kts 257°
2026-05-07 10:06 51.14960 -0.19939 205 ft 19 kts 256°
2026-05-07 10:06 51.14933 -0.20145 205 ft 19 kts 259°
2026-05-07 10:06 51.14906 -0.20353 207 ft 19 kts 257°
2026-05-07 10:06 51.14876 -0.20564 205 ft 20 kts 257°
2026-05-07 10:07 51.14847 -0.20775 205 ft 20 kts 258°
2026-05-07 10:07 51.14819 -0.20986 206 ft 19 kts 257°
2026-05-07 10:07 51.14783 -0.21194 210 ft 20 kts 252°
2026-05-07 10:07 51.14758 -0.21359 206 ft 13 kts 256°
2026-05-07 10:08 51.14721 -0.21402 209 ft 0 kts 182°
2026-05-07 10:08 51.14720 -0.21402 209 ft 1 kts 182°
2026-05-07 10:09 51.14697 -0.21395 208 ft 6 kts 163°
2026-05-07 10:09 51.14653 -0.21344 208 ft 9 kts 146°
2026-05-07 10:09 51.14615 -0.21327 205 ft 0 kts 167°
2026-05-07 10:10 51.14602 -0.21322 205 ft 5 kts 167°
2026-05-07 10:10 51.14540 -0.21266 211 ft 14 kts 130°
2026-05-07 10:10 51.14523 -0.21141 205 ft 3 kts 76°
2026-05-07 10:11 51.14524 -0.21135 208 ft 3 kts 76°
2026-05-07 10:11 51.14542 -0.21006 216 ft 31 kts 78°
2026-05-07 10:11 51.14646 -0.20252 212 ft 105 kts 78°
2026-05-07 10:12 51.14844 -0.18811 218 ft 161 kts 78°
2026-05-07 10:12 51.15103 -0.16983 617 ft 177 kts 77°
2026-05-07 10:12 51.15379 -0.15000 1248 ft 187 kts 78°
2026-05-07 10:12 51.15655 -0.12980 2036 ft 186 kts 78°
2026-05-07 10:13 51.15929 -0.10970 2793 ft 188 kts 78°
2026-05-07 10:13 51.16223 -0.08805 3055 ft 216 kts 78°
2026-05-07 10:13 51.16641 -0.06435 3001 ft 226 kts 62°
2026-05-07 10:13 51.17790 -0.04788 3009 ft 228 kts 19°
2026-05-07 10:14 51.19354 -0.04595 3010 ft 228 kts 352°
2026-05-07 10:14 51.20904 -0.05122 3009 ft 228 kts 341°
2026-05-07 10:14 51.22177 -0.06553 3014 ft 227 kts 305°
2026-05-07 10:14 51.22758 -0.08925 3022 ft 245 kts 273°
2026-05-07 10:15 51.22539 -0.11670 3364 ft 255 kts 258°
2026-05-07 10:15 51.22206 -0.14466 3852 ft 256 kts 259°
2026-05-07 10:15 51.21883 -0.17287 4593 ft 259 kts 259°
2026-05-07 10:15 51.21499 -0.20106 5321 ft 262 kts 250°
2026-05-07 10:16 51.20667 -0.22699 6055 ft 264 kts 241°
2026-05-07 10:16 51.19760 -0.25251 6780 ft 265 kts 241°
2026-05-07 10:16 51.18841 -0.27821 7485 ft 269 kts 241°
2026-05-07 10:16 51.17902 -0.30445 7904 ft 275 kts 241°
2026-05-07 10:17 51.16955 -0.33093 7993 ft 275 kts 241°
2026-05-07 10:17 51.16005 -0.35747 8012 ft 275 kts 241°
2026-05-07 10:17 51.15059 -0.38397 8010 ft 275 kts 241°
2026-05-07 10:17 51.14119 -0.41033 8307 ft 275 kts 241°
2026-05-07 10:18 51.13491 -0.42797 8550 ft 277 kts 241°
2026-05-07 10:18 51.12536 -0.45489 8920 ft 280 kts 241°
2026-05-07 10:18 51.11578 -0.48187 9566 ft 282 kts 241°
2026-05-07 10:18 51.10611 -0.50932 10288 ft 288 kts 241°
2026-05-07 10:19 51.09620 -0.53761 10984 ft 297 kts 241°
2026-05-07 10:19 51.08595 -0.56686 11563 ft 312 kts 241°
2026-05-07 10:19 51.07515 -0.59771 12107 ft 326 kts 241°
2026-05-07 10:19 51.06581 -0.63116 12681 ft 337 kts 254°
2026-05-07 10:20 51.05978 -0.66770 13013 ft 345 kts 256°
2026-05-07 10:20 51.05206 -0.71677 13121 ft 345 kts 256°
2026-05-07 10:20 51.04815 -0.74178 13390 ft 346 kts 256°
2026-05-07 10:20 51.04236 -0.77903 13799 ft 348 kts 256°
2026-05-07 10:21 51.03655 -0.81657 14036 ft 351 kts 256°
2026-05-07 10:21 51.03076 -0.85424 14079 ft 351 kts 256°
2026-05-07 10:21 51.02498 -0.89184 14081 ft 350 kts 256°
2026-05-07 10:21 51.01928 -0.92893 14078 ft 350 kts 256°
2026-05-07 10:22 51.01353 -0.96643 14079 ft 350 kts 256°
2026-05-07 10:22 51.00780 -1.00403 14081 ft 350 kts 256°
2026-05-07 10:22 51.00209 -1.04159 14082 ft 350 kts 256°
2026-05-07 10:22 50.99636 -1.07905 14081 ft 349 kts 256°
2026-05-07 10:23 50.99060 -1.11653 14083 ft 349 kts 256°
2026-05-07 10:23 50.98484 -1.15399 14083 ft 350 kts 256°
2026-05-07 10:23 50.97906 -1.19149 14084 ft 350 kts 256°
2026-05-07 10:23 50.97327 -1.22899 14085 ft 350 kts 256°
2026-05-07 10:24 50.96746 -1.26648 14085 ft 350 kts 255°
2026-05-07 10:24 50.95907 -1.30273 14271 ft 355 kts 242°
2026-05-07 10:24 50.94566 -1.33545 15066 ft 355 kts 231°
2026-05-07 10:24 50.92813 -1.36303 15814 ft 357 kts 218°
2026-05-07 10:25 50.90699 -1.38391 16550 ft 361 kts 207°
2026-05-07 10:25 50.88449 -1.40192 17252 ft 364 kts 207°
2026-05-07 10:25 50.86178 -1.41994 17959 ft 367 kts 207°
2026-05-07 10:25 50.83885 -1.43811 18586 ft 371 kts 207°
2026-05-07 10:26 50.81567 -1.45652 19182 ft 374 kts 207°
2026-05-07 10:26 50.79234 -1.47505 19774 ft 377 kts 207°
2026-05-07 10:26 50.76877 -1.49373 20016 ft 379 kts 207°
2026-05-07 10:26 50.74519 -1.51237 20076 ft 379 kts 207°
2026-05-07 10:27 50.72155 -1.53110 20303 ft 382 kts 207°
2026-05-07 10:27 50.69775 -1.55003 20952 ft 384 kts 208°
2026-05-07 10:27 50.67384 -1.56905 21567 ft 387 kts 208°
2026-05-07 10:27 50.64967 -1.58820 22159 ft 390 kts 207°
2026-05-07 10:28 50.62531 -1.60739 22725 ft 393 kts 207°
2026-05-07 10:28 50.60067 -1.62675 23285 ft 397 kts 207°
2026-05-07 10:28 50.57590 -1.64618 23786 ft 400 kts 207°
2026-05-07 10:28 50.55093 -1.66579 24020 ft 401 kts 207°
2026-05-07 10:29 50.52595 -1.68539 24072 ft 401 kts 207°
2026-05-07 10:29 50.50097 -1.70498 24079 ft 401 kts 207°
2026-05-07 10:29 50.47598 -1.72457 24079 ft 401 kts 207°
2026-05-07 10:30 50.42648 -1.76328 23915 ft 395 kts 207°
2026-05-07 10:30 50.40204 -1.78231 23707 ft 391 kts 207°
2026-05-07 10:30 50.37742 -1.80152 23462 ft 389 kts 207°
2026-05-07 10:30 50.35323 -1.82037 23210 ft 388 kts 207°
2026-05-07 10:31 50.32940 -1.83893 22961 ft 386 kts 207°
2026-05-07 10:31 50.30541 -1.85758 22715 ft 385 kts 207°
2026-05-07 10:31 50.28146 -1.87615 22469 ft 383 kts 207°
2026-05-07 10:31 50.25762 -1.89462 22224 ft 382 kts 207°
2026-05-07 10:32 50.23389 -1.91302 21975 ft 381 kts 207°
2026-05-07 10:32 50.21019 -1.93136 21743 ft 379 kts 207°
2026-05-07 10:32 50.18660 -1.94959 21501 ft 378 kts 207°
2026-05-07 10:32 50.16308 -1.96777 21266 ft 376 kts 207°
2026-05-07 10:33 50.13965 -1.98587 21034 ft 375 kts 207°
2026-05-07 10:33 50.11630 -2.00385 20804 ft 374 kts 207°
2026-05-07 10:33 50.09300 -2.02171 20571 ft 373 kts 207°
2026-05-07 10:33 50.06979 -2.03952 20342 ft 371 kts 207°
2026-05-07 10:34 50.04669 -2.05725 20139 ft 370 kts 207°
2026-05-07 10:34 50.02365 -2.07491 20057 ft 369 kts 207°
2026-05-07 10:34 50.00060 -2.09255 19784 ft 369 kts 207°
2026-05-07 10:34 49.97657 -2.10794 18731 ft 380 kts 198°
2026-05-07 10:35 49.95082 -2.11723 17769 ft 380 kts 193°
2026-05-07 10:35 49.92510 -2.12593 17093 ft 375 kts 194°
2026-05-07 10:35 49.89980 -2.13462 16600 ft 371 kts 194°
2026-05-07 10:35 49.87470 -2.14326 16114 ft 367 kts 194°
2026-05-07 10:36 49.84983 -2.15179 15627 ft 364 kts 193°
2026-05-07 10:36 49.82523 -2.16019 15152 ft 361 kts 193°
2026-05-07 10:36 49.80084 -2.16849 14675 ft 358 kts 194°
2026-05-07 10:36 49.77662 -2.17677 14220 ft 354 kts 193°
2026-05-07 10:37 49.75253 -2.18498 13600 ft 355 kts 194°
2026-05-07 10:37 49.72837 -2.19319 12942 ft 355 kts 193°
2026-05-07 10:37 49.70441 -2.20140 12466 ft 349 kts 194°
2026-05-07 10:37 49.68106 -2.21066 12024 ft 343 kts 197°
2026-05-07 10:38 49.65830 -2.22077 11589 ft 338 kts 198°
2026-05-07 10:38 49.63598 -2.23117 11163 ft 332 kts 198°
2026-05-07 10:38 49.61405 -2.24149 10739 ft 327 kts 198°
2026-05-07 10:38 49.59239 -2.25153 10320 ft 323 kts 198°
2026-05-07 10:39 49.57121 -2.26117 9903 ft 319 kts 197°
2026-05-07 10:39 49.54974 -2.27078 9435 ft 315 kts 197°
2026-05-07 10:39 49.52908 -2.27995 8990 ft 312 kts 197°
2026-05-07 10:39 49.50839 -2.28911 8539 ft 308 kts 197°
2026-05-07 10:40 49.48785 -2.29817 8074 ft 305 kts 197°
2026-05-07 10:40 49.46756 -2.30713 7641 ft 302 kts 196°
2026-05-07 10:40 49.44768 -2.31701 7210 ft 298 kts 205°
2026-05-07 10:40 49.42957 -2.33218 6768 ft 296 kts 210°
2026-05-07 10:41 49.41184 -2.34812 6288 ft 295 kts 211°
2026-05-07 10:41 49.39438 -2.36393 6053 ft 285 kts 211°
2026-05-07 10:41 49.37789 -2.37889 6051 ft 266 kts 211°
2026-05-07 10:41 49.36247 -2.39289 6053 ft 248 kts 211°
2026-05-07 10:42 49.34797 -2.40605 6054 ft 239 kts 211°
2026-05-07 10:42 49.33373 -2.41897 6056 ft 238 kts 211°
2026-05-07 10:42 49.31950 -2.43183 6061 ft 237 kts 211°
2026-05-07 10:42 49.30528 -2.44465 6057 ft 237 kts 211°
2026-05-07 10:43 49.29106 -2.45744 6058 ft 237 kts 211°
2026-05-07 10:43 49.27685 -2.47023 6055 ft 237 kts 211°
2026-05-07 10:43 49.26263 -2.48301 6055 ft 237 kts 211°
2026-05-07 10:43 49.24841 -2.49580 6055 ft 237 kts 211°
2026-05-07 10:44 49.23417 -2.50860 6056 ft 237 kts 211°
2026-05-07 10:44 49.21994 -2.52140 6055 ft 237 kts 211°
2026-05-07 10:44 49.20573 -2.53416 6055 ft 237 kts 211°
2026-05-07 10:44 49.19148 -2.54697 6053 ft 237 kts 210°
2026-05-07 10:45 49.17725 -2.55977 6054 ft 237 kts 211°
2026-05-07 10:45 49.16301 -2.57254 6053 ft 237 kts 211°
2026-05-07 10:45 49.14879 -2.58530 6053 ft 237 kts 211°
2026-05-07 10:45 49.13455 -2.59807 6050 ft 237 kts 211°
2026-05-07 10:46 49.12060 -2.61164 5856 ft 238 kts 221°
2026-05-07 10:46 49.11069 -2.63145 5601 ft 234 kts 239°
2026-05-07 10:46 49.10253 -2.65270 5349 ft 230 kts 240°
2026-05-07 10:46 49.09462 -2.67376 5090 ft 227 kts 240°
2026-05-07 10:47 49.08684 -2.69460 4839 ft 224 kts 243°
2026-05-07 10:47 49.08350 -2.71725 4564 ft 219 kts 276°
2026-05-07 10:47 49.08905 -2.73816 4303 ft 213 kts 311°
2026-05-07 10:47 49.10128 -2.74990 4045 ft 209 kts 347°
2026-05-07 10:48 49.11545 -2.74827 3787 ft 207 kts 24°
2026-05-07 10:48 49.12736 -2.73606 3682 ft 208 kts 39°
2026-05-07 10:48 49.13841 -2.72192 3550 ft 207 kts 40°
2026-05-07 10:48 49.14938 -2.70762 3423 ft 207 kts 40°
2026-05-07 10:49 49.15989 -2.69305 3288 ft 207 kts 50°
2026-05-07 10:49 49.16577 -2.67327 3175 ft 207 kts 75°
2026-05-07 10:49 49.16861 -2.65171 3044 ft 207 kts 80°
2026-05-07 10:49 49.17075 -2.63001 2915 ft 206 kts 82°
2026-05-07 10:50 49.17268 -2.60831 2792 ft 206 kts 83°
2026-05-07 10:50 49.17457 -2.58667 2660 ft 205 kts 83°
2026-05-07 10:50 49.17645 -2.56507 2533 ft 205 kts 83°
2026-05-07 10:50 49.17832 -2.54357 2400 ft 204 kts 83°
2026-05-07 10:51 49.18017 -2.52213 2270 ft 203 kts 83°
2026-05-07 10:51 49.18202 -2.50077 2151 ft 202 kts 83°
2026-05-07 10:51 49.18385 -2.47951 2055 ft 202 kts 83°
2026-05-07 10:51 49.18568 -2.45831 1997 ft 201 kts 84°
2026-05-07 10:52 49.18750 -2.43709 2002 ft 201 kts 84°
2026-05-07 10:52 49.18931 -2.41588 2014 ft 201 kts 84°
2026-05-07 10:52 49.19113 -2.39463 2013 ft 201 kts 83°
2026-05-07 10:52 49.19294 -2.37340 2011 ft 201 kts 83°
2026-05-07 10:53 49.19474 -2.35219 2010 ft 201 kts 84°
2026-05-07 10:53 49.19653 -2.33112 1953 ft 196 kts 84°
2026-05-07 10:53 49.19825 -2.31091 1750 ft 187 kts 84°
2026-05-07 10:53 49.19990 -2.29133 1513 ft 190 kts 84°
2026-05-07 10:54 49.20156 -2.27165 1224 ft 180 kts 84°
2026-05-07 10:54 49.20308 -2.25366 968 ft 162 kts 84°
2026-05-07 10:54 49.20443 -2.23775 749 ft 142 kts 85°
2026-05-07 10:54 49.20562 -2.22357 553 ft 129 kts 87°
2026-05-07 10:55 49.20674 -2.21025 372 ft 122 kts 86°
2026-05-07 10:55 49.20775 -2.19810 285 ft 108 kts 83°
2026-05-07 10:55 49.20835 -2.19087 285 ft 47 kts 83°
2026-05-07 10:55 49.20868 -2.18659 285 ft 28 kts 81°
2026-05-07 10:56 49.20887 -2.18436 281 ft 18 kts 102°
2026-05-07 10:56 49.20792 -2.18395 288 ft 15 kts 207°
2026-05-07 10:56 49.20731 -2.18523 288 ft 16 kts 262°
2026-05-07 10:56 49.20720 -2.18693 289 ft 16 kts 265°
2026-05-07 10:57 49.20704 -2.18864 284 ft 16 kts 260°
2026-05-07 10:57 49.20690 -2.19039 286 ft 17 kts 264°
2026-05-07 10:57 49.20685 -2.19219 284 ft 17 kts 277°
2026-05-07 10:57 49.20709 -2.19398 284 ft 17 kts 272°
2026-05-07 10:58 49.20696 -2.19557 284 ft 12 kts 260°
2026-05-07 10:58 49.20653 -2.19658 284 ft 6 kts 218°
2026-05-07 10:58 49.20620 -2.19706 284 ft 7 kts 239°
2026-05-07 10:58 49.20611 -2.19784 284 ft 8 kts 263°
2026-05-07 10:59 49.20606 -2.19864 284 ft 7 kts 264°
2026-05-07 10:59 49.20578 -2.19928 285 ft 8 kts 201°
2026-05-07 10:59 49.20521 -2.19928 284 ft 9 kts 176°
2026-05-07 10:59 49.20454 -2.19920 284 ft 10 kts 171°
2026-05-07 11:00 49.20433 -2.19834 284 ft 10 kts 84°
2026-05-07 11:00 49.20441 -2.19725 284 ft 8 kts 85°
2026-05-07 11:00 49.20441 -2.19653 284 ft 5 kts 85°
2026-05-07 11:00 49.20458 -2.19631 286 ft 2 kts 21°
2026-05-07 11:01 49.20472 -2.19625 284 ft 2 kts 15°
2026-05-07 11:01 49.20487 -2.19618 286 ft 2 kts 16°
2026-05-07 11:01 49.20492 -2.19616 284 ft 0 kts 16°